Casa Grande, AZ

1:05 PM MST on November 22, 2019 (GMT -0700)
Casa Grande Municipal

Weather History for KCGZ - September, 2019

Change the Weather History Date:

Thursday, September 5, 2019

  Actual Average Record
Temperature  
Mean Temperature 94 °F -  
Max Temperature 106 °F 97 °F 105 °F (2002)
Min Temperature 82 °F 72 °F 66 °F (1999)
Cooling Degree Days 29    
Growing Degree Days 44 (Base 50)    
Moisture  
Dew Point 56 °F    
Average Humidity 31    
Maximum Humidity 49    
Minimum Humidity 14    
Precipitation  
Precipitation 0.00 in - - ()
Sea Level Pressure  
Sea Level Pressure 29.89 in    
Wind  
Wind Speed 4 mph ()    
Max Wind Speed 10 mph    
Max Gust Speed -    
Visibility 10.0 miles    
Events      
Averages and records for this station are not official NWS values.
T = Trace of Precipitation, MM = Missing Value Source: Averaged Metar Reports

Daily Weather History Graph

Daily Weather History Graph

Search for Another Location

Airport or City:

Astronomy

Sep. 05, 2019 Rise Set
Actual Time 6:04 AM MST 6:46 PM MST
Civil Twilight 5:39 AM MST 7:11 PM MST
Nautical Twilight 5:09 AM MST 7:41 PM MST
Astronomical Twilight 4:39 AM MST 8:11 PM MST
Moon 12:52 PM MST (9/5) 11:28 PM MST (9/5)
Length of Visible Light 13h 32m
Length of Day
12h 42m
Waxing Crescent, 46% of the Moon is Illuminated
Sep 5
Waxing Crescent
Sep 5
First Quarter
Sep 13
Full
Sep 21
Last Quarter
Sep 28
New

Hourly Weather History & Observations

Time (MST) Temp. Heat Index Dew Point Humidity Pressure Visibility Wind Dir Wind Speed Gust Speed Precip Events Conditions
12:56 AM 88.0 °F 89.6 °F 64.9 °F 46% 29.88 in 10.0 mi East 4.6 mph - N/A   Clear
1:56 AM 84.9 °F 85.9 °F 63.0 °F 48% 29.88 in 10.0 mi ENE 3.5 mph - N/A   Clear
2:56 AM 84.9 °F 85.9 °F 63.0 °F 48% 29.89 in 10.0 mi West 5.8 mph - N/A   Clear
3:56 AM 84.9 °F 85.4 °F 62.1 °F 46% 29.88 in 10.0 mi Calm Calm - N/A   Clear
4:56 AM 82.0 °F 82.7 °F 61.0 °F 49% 29.89 in 10.0 mi NE 4.6 mph - N/A   Clear
5:56 AM 82.0 °F 82.7 °F 61.0 °F 49% 29.91 in 10.0 mi ENE 4.6 mph - N/A   Clear
6:56 AM 84.0 °F 84.4 °F 61.0 °F 46% 29.93 in 10.0 mi Calm Calm - N/A   Clear
7:56 AM 89.1 °F 90.3 °F 64.0 °F 43% 29.94 in 10.0 mi Calm Calm - N/A   Clear
8:56 AM 93.0 °F 94.6 °F 64.0 °F 38% 29.94 in 10.0 mi Calm Calm - N/A   Clear
9:56 AM 99.0 °F 96.9 °F 54.0 °F 22% 29.94 in 10.0 mi ENE 10.4 mph - N/A   Clear
10:56 AM 100.9 °F - 50.0 °F 18% 29.93 in 10.0 mi East 8.1 mph - N/A   Clear
11:56 AM 102.9 °F - 51.1 °F 18% 29.91 in 10.0 mi ESE 6.9 mph - N/A   Clear
12:56 PM 105.1 °F - 51.1 °F 16% 29.90 in 10.0 mi SE 8.1 mph - N/A   Clear
1:56 PM 105.1 °F - 48.9 °F 15% 29.88 in 10.0 mi Calm Calm - N/A   Clear
2:56 PM 106.0 °F - 46.9 °F 14% 29.85 in 10.0 mi SSE 5.8 mph - N/A   Clear
3:56 PM 106.0 °F - 48.0 °F 14% 29.83 in 10.0 mi South 10.4 mph - N/A   Clear
4:56 PM 104.0 °F - 46.0 °F 14% 29.82 in 10.0 mi Variable 5.8 mph - N/A   Clear
5:56 PM 105.1 °F - 46.0 °F 14% 29.82 in 10.0 mi SSW 5.8 mph - N/A   Clear
6:56 PM 100.0 °F - 46.0 °F 16% 29.84 in 10.0 mi West 6.9 mph - N/A   Clear
7:56 PM 96.1 °F 95.6 °F 59.0 °F 29% 29.86 in 10.0 mi West 9.2 mph - N/A   Clear
8:56 PM 93.9 °F 93.2 °F 59.0 °F 31% 29.88 in 10.0 mi West 8.1 mph - N/A   Clear
9:56 PM 91.9 °F 91.2 °F 59.0 °F 33% 29.89 in 10.0 mi West 8.1 mph - N/A   Clear
10:56 PM 89.1 °F 88.8 °F 60.1 °F 38% 29.90 in 10.0 mi SW 4.6 mph - N/A   Clear
11:56 PM 90.0 °F 90.0 °F 61.0 °F 38% 29.90 in 10.0 mi WSW 8.1 mph - N/A   Clear